FW6023 Weather Reports


Display with metric or nautical units.
time (UTC)temp
F
wind
direction
speed
MPH
gust
MPH
rain 1hr
in
rain 24hr
in
rain mn
in
humidity
%
barometer
mb
20260503071538 56 0 0.0 0.0 0.00 0.00 0.00 69 1014.0
20260503060133 56 0 0.0 0.0 0.00 0.00 0.00 71 1013.9
20260503054629 57 0 0.0 0.0 0.00 0.00 0.00 71 1013.9
20260503053056 57 0 0.0 0.0 0.00 0.00 0.00 70 1014.0
20260503051618 57 0 0.0 0.0 0.00 0.00 0.00 70 1013.9
20260503050134 57 0 0.0 0.0 0.00 0.00 0.00 72 1013.9
20260503044539 57 0 0.0 0.0 0.00 0.00 0.00 75 1013.9
20260503043419 57 0 0.0 0.0 0.00 0.00 0.00 75 1013.8
20260503041556 57 0 0.0 0.0 0.00 0.00 0.00 76 1013.7
20260503040045 57 0 0.0 0.0 0.00 0.00 0.00 76 1013.6
20260503034701 57 0 0.0 0.0 0.00 0.00 0.00 76 1013.4
20260503033038 57 0 0.0 0.0 0.00 0.00 0.00 75 1013.3
20260503031538 58 0 0.0 0.0 0.00 0.00 0.00 74 1013.1
20260503030045 59 0 0.0 0.0 0.00 0.00 0.00 73 1013.0
20260503024607 60 0 0.0 2.0 0.00 0.00 0.00 71 1012.9
20260503023149 62 0 0.0 2.0 0.00 0.00 0.00 69 1012.9
20260503021541 64 0 0.0 2.0 0.00 0.00 0.00 64 1012.9
20260503020206 66 342 0.0 4.0 0.00 0.00 0.00 62 1013.0
20260503014704 66 0 0.0 0.0 0.00 0.00 0.00 63 1013.1
20260503013038 66 0 0.0 2.0 0.00 0.00 0.00 64 1013.4
20260503011549 65 0 0.0 0.0 0.00 0.00 0.00 65 1013.7
20260503010044 66 0 0.0 0.0 0.00 0.00 0.00 63 1013.8
20260503004605 66 0 0.0 0.0 0.00 0.00 0.00 64 1013.9
20260503003038 65 0 0.0 0.0 0.00 0.00 0.00 65 1014.0
20260503001537 64 0 0.0 2.0 0.00 0.00 0.00 69 1014.1
20260503000039 63 155 1.0 3.0 0.00 0.00 0.00 70 1014.3
20260502234548 63 157 1.0 3.0 0.00 0.00 0.00 69 1014.5
20260502233037 62 163 1.0 4.0 0.00 0.00 0.00 70 1014.6
20260502231543 62 152 2.0 5.0 0.00 0.00 0.00 71 1014.7
20260502230040 62 145 2.0 4.0 0.00 0.00 0.00 71 1014.9
20260502224535 64 156 1.0 4.0 0.00 0.00 0.00 70 1015.0
20260502223037 65 253 1.0 7.0 0.00 0.00 0.00 67 1015.1
20260502221537 65 323 2.0 7.0 0.00 0.00 0.00 71 1015.3
20260502220039 63 217 1.0 7.0 0.00 0.00 0.00 72 1015.6
20260502214544 61 325 0.0 3.0 0.00 0.00 0.00 77 1015.7
20260502213038 59 192 1.0 3.0 0.00 0.00 0.00 79 1015.9
20260502211539 58 205 1.0 3.0 0.00 0.00 0.00 83 1016.0
20260502210039 57 209 1.0 3.0 0.00 0.00 0.00 80 1016.2
20260502204537 59 205 1.0 3.0 0.00 0.00 0.00 78 1016.3